[Date Prev][Date Next][Thread Prev][Thread Next] - [Date Index][Thread Index][Author Index]

2 Line ISS Keps 8-3



ISS
1 25544U 98067A   05215.27663278 -.00026206  00000-0 -19570-3 0   639
2 25544 051.6478 019.7781 0001864 213.9075 208.8636 15.71577402383097
----
Via the sarex mailing list at AMSAT.ORG courtesy of AMSAT-NA.
To unsubscribe, send "unsubscribe sarex" to Majordomo@amsat.org



AMSAT Top AMSAT Home